Flag for Germany Weather past 2 weeks in Herne, North Rhine-Westphalia, Germany

Now
54 °F

Overcast.


Feels Like: 53 °F
Forecast: 52 / 67 °F
Wind: 7 mph from South

Location: Duesseldorf

Current Time: Jun 2, 2015 at 3:47:29 AM

Latest Report: Jun 2, 2015 at 3:00 AM


Visibility: 31 mi

Pressure: 29.92 "Hg

Humidity: 64%

Dew point: 43 °F

Location of HerneLocation

Historic Weather in Herne — Graph

°F

Herne temperature yesterday

Maximum temperature yesterday: 64 °F (at 4:00 PM)
Minimum temperature yesterday: 47 °F (at 6:00 AM)
Average temperature yesterday: 57 °F

Past Weeks' High & Low Weather Summary

 TemperatureHumidityPressure
High69 °F (May 18, 3:00 PM)99% (May 29, 4:00 AM)30.34 "Hg (May 29, 4:00 AM)
Low38 °F (May 21, 4:00 AM)36% (May 22, 4:00 PM)29.65 "Hg (May 18, 8:00 PM)
Average55 °F67%30.02 "Hg
* Reported May 18 3:00 AM — Jun 2 3:00 AM, Herne, Weather by CustomWeather, © 2015

Note: Actual official high and low records may vary slightly from our data, if they occured in-between our weather recording intervals... More about our weather records

Advertising

Herne weather history for previous 24 hours

 ConditionsComfort  
Time TempWeatherWind HumidityBarometerVisibility
3:00 AM
Tue, Jun 2
54 °FOvercast.7 mph64%29.92 "Hg31 mi
2:00 AM55 °FOvercast.6 mph62%29.93 "Hg31 mi
1:00 AM53 °FPassing clouds.5 mph68%29.94 "Hg31 mi
12:00 AM53 °FPassing clouds.3 mph74%29.95 "Hg31 mi
10:00 PM
Mon, Jun 1
54 °FPassing clouds.1 mph74%29.96 "Hg31 mi
9:00 PM58 °FPartly sunny.2 mph57%29.97 "Hg31 mi
8:00 PM60 °FPartly sunny.3 mph49%29.98 "Hg31 mi
7:00 PM63 °FPassing clouds.5 mph43%29.99 "Hg28 mi
6:00 PM64 °FScattered clouds.5 mph41%30.01 "Hg28 mi
4:00 PM64 °FPartly sunny.5 mph38%30.03 "Hg22 mi
3:00 PM62 °FOvercast.5 mph47%30.04 "Hg22 mi
2:00 PM60 °FOvercast.2 mph57%30.03 "Hg19 mi
1:00 PM59 °FOvercast.3 mph57%30.04 "Hg19 mi
12:00 PM58 °FOvercast.2 mph59%30.04 "Hg19 mi
10:00 AM56 °FOvercast.1 mph60%30.03 "Hg19 mi
9:00 AM54 °FLow clouds.2 mph83%30.02 "Hg19 mi
8:00 AM52 °FOvercast.2 mph89%30.01 "Hg16 mi
7:00 AM50 °FLow clouds.2 mph95%29.99 "Hg16 mi
6:00 AM47 °FFog.1 mph98%29.98 "Hg19 mi
4:00 AM51 °FLight rain. Overcast.3 mph93%29.94 "Hg19 mi
3:00 AM51 °FLight rain. Low clouds.5 mph91%29.91 "Hg6 mi
Weather by CustomWeather, © 2015

See weather overviewHow to use our weather pages